When you browse on this site, cookies collect data to enhance your experience and personalize the content and advertising you see.
Visit our Privacy Policy to learn more. By continuing to use the site, you agree to this use of cookies and data.
  • In Hungary
  • List of Countries
  • For 7 days
  • Water Temperature
  • Satellite Maps
  • Weather Map
  • News
  • Weather Widgets
  • user-avatar
    Login

    Hourly Weather Obidza

    Today, 17 December, Monday

    Time Temperature Precipitation Wind Pressure Humidity
    00:00 -6°C° 0 mm 1 mps 715 mmHg 90%
    01:00 -6°C° 0 mm 1 mps 716 mmHg 89%
    02:00 -6°C° 0 mm 1 mps 715 mmHg 89%
    03:00 -6°C° 0 mm 1 mps 715 mmHg 88%
    04:00 -6°C° 0 mm 1 mps 715 mmHg 88%
    05:00 -6°C° 0 mm 1 mps 715 mmHg 87%
    06:00 -6°C° 0 mm 1 mps 715 mmHg 85%
    07:00 -6°C° 0 mm 1 mps 715 mmHg 84%
    08:00 -4°C° 0 mm 1 mps 716 mmHg 80%
    09:00 -4°C° 0 mm 0 mps 716 mmHg 77%
    10:00 -3°C° 0 mm 0 mps 717 mmHg 73%
    11:00 -2°C° 0 mm 0 mps 717 mmHg 71%
    12:00 0°C° 0 mm 1 mps 717 mmHg 70%
    13:00 0°C° 0 mm 1 mps 717 mmHg 69%
    14:00 -1°C° 0 mm 1 mps 717 mmHg 74%
    15:00 -2°C° 0 mm 1 mps 718 mmHg 79%
    16:00 -3°C° 0 mm 1 mps 718 mmHg 84%
    17:00 -3°C° 0 mm 1 mps 718 mmHg 85%
    18:00 -3°C° 0 mm 1 mps 718 mmHg 86%
    19:00 -4°C° 0 mm 1 mps 719 mmHg 87%
    20:00 -4°C° 0 mm 1 mps 719 mmHg 88%
    21:00 -3°C° 0 mm 1 mps 719 mmHg 89%
    22:00 -3°C° 0 mm 1 mps 720 mmHg 89%
    23:00 -3°C° 0 mm 1 mps 720 mmHg 90%

    Tomorrow, 18 December, Tuesday

    Time Temperature Precipitation Wind Pressure Humidity
    00:00 -3°C° 0 mm 1 mps 720 mmHg 91%
    01:00 -3°C° 0 mm 1 mps 721 mmHg 91%
    02:00 -3°C° 0 mm 1 mps 721 mmHg 92%
    03:00 -3°C° 0 mm 1 mps 721 mmHg 92%
    04:00 -2°C° 0 mm 1 mps 721 mmHg 93%
    05:00 -2°C° 0 mm 1 mps 721 mmHg 93%
    06:00 -2°C° 0 mm 1 mps 721 mmHg 93%
    07:00 -3°C° 0 mm 1 mps 721 mmHg 93%
    08:00 -2°C° 0 mm 1 mps 722 mmHg 91%
    09:00 -1°C° 0 mm 1 mps 722 mmHg 89%
    10:00 0°C° 0 mm 1 mps 722 mmHg 87%
    11:00 +1°C° 0 mm 1 mps 722 mmHg 86%
    12:00 +1°C° 0 mm 1 mps 722 mmHg 84%
    13:00 +2°C° 0 mm 1 mps 721 mmHg 83%
    14:00 +1°C° 0 mm 1 mps 721 mmHg 86%
    15:00 0°C° 0 mm 1 mps 721 mmHg 89%
    16:00 -1°C° 0 mm 1 mps 721 mmHg 92%
    17:00 -2°C° 0 mm 1 mps 721 mmHg 92%
    18:00 -2°C° 0 mm 1 mps 721 mmHg 92%
    19:00 -2°C° 0 mm 1 mps 721 mmHg 93%
    20:00 -3°C° 0 mm 1 mps 721 mmHg 92%
    21:00 -3°C° 0 mm 1 mps 721 mmHg 91%
    22:00 -3°C° 0 mm 1 mps 721 mmHg 90%
    23:00 -3°C° 0 mm 1 mps 721 mmHg 89%

    Day after tomorrow, 19 December, Wednesday

    Time Temperature Precipitation Wind Pressure Humidity
    00:00 -4°C° 0 mm 1 mps 720 mmHg 88%
    01:00 -4°C° 0 mm 1 mps 720 mmHg 87%
    02:00 -4°C° 0 mm 1 mps 720 mmHg 86%
    03:00 -4°C° 0 mm 1 mps 720 mmHg 85%
    04:00 -4°C° 0 mm 1 mps 720 mmHg 84%
    05:00 -4°C° 0 mm 1 mps 720 mmHg 84%
    06:00 -4°C° 0 mm 1 mps 720 mmHg 83%
    07:00 -4°C° 0 mm 1 mps 720 mmHg 82%
    08:00 -3°C° 0 mm 1 mps 720 mmHg 79%
    09:00 -2°C° 0 mm 1 mps 720 mmHg 76%
    10:00 -1°C° 0 mm 1 mps 720 mmHg 73%
    11:00 0°C° 0 mm 1 mps 720 mmHg 73%
    12:00 0°C° 0 mm 1 mps 720 mmHg 72%
    13:00 +1°C° 0 mm 1 mps 720 mmHg 72%
    14:00 -2°C° 0 mm 2 mps 719 mmHg 77%
    15:00 -3°C° 0 mm 2 mps 719 mmHg 82%
    16:00 -5°C° 0 mm 2 mps 719 mmHg 86%
    17:00 -5°C° 0 mm 2 mps 719 mmHg 86%
    18:00 -5°C° 0 mm 2 mps 719 mmHg 86%
    19:00 -6°C° 0 mm 2 mps 719 mmHg 86%
    20:00 -6°C° 0 mm 2 mps 719 mmHg 85%
    21:00 -6°C° 0 mm 2 mps 719 mmHg 84%
    22:00 -6°C° 0 mm 2 mps 719 mmHg 83%
    23:00 -6°C° 0 mm 2 mps 718 mmHg 83%

    20 December, Thursday

    Time Temperature Precipitation Wind Pressure Humidity
    00:00 -6°C° 0 mm 2 mps 718 mmHg 83%
    01:00 -6°C° 0 mm 2 mps 718 mmHg 82%
    02:00 -6°C° 0 mm 2 mps 718 mmHg 82%
    03:00 -6°C° 0 mm 2 mps 718 mmHg 81%
    04:00 -6°C° 0 mm 2 mps 718 mmHg 80%
    05:00 -6°C° 0 mm 2 mps 718 mmHg 80%
    06:00 -6°C° 0 mm 2 mps 718 mmHg 80%
    07:00 -6°C° 0 mm 2 mps 718 mmHg 80%
    08:00 -5°C° 0 mm 2 mps 718 mmHg 80%
    09:00 -4°C° 0 mm 2 mps 718 mmHg 80%
    10:00 -3°C° 0 mm 2 mps 718 mmHg 80%
    11:00 -3°C° 0.1 mm 2 mps 718 mmHg 80%
    12:00 -2°C° 0.1 mm 2 mps 717 mmHg 80%
    13:00 -1°C° 0.1 mm 2 mps 717 mmHg 80%
    14:00 -2°C° 0 mm 2 mps 717 mmHg 82%
    15:00 -3°C° 0 mm 2 mps 717 mmHg 83%
    16:00 -3°C° 0 mm 2 mps 717 mmHg 85%
    17:00 -3°C° 0 mm 2 mps 717 mmHg 86%
    18:00 -1°C° 0 mm 1 mps 717 mmHg 86%
    19:00 -1°C° 0 mm 1 mps 717 mmHg 87%
    20:00 -1°C° 0.1 mm 1 mps 717 mmHg 87%
    21:00 -1°C° 0.1 mm 1 mps 717 mmHg 88%
    22:00 -1°C° 0.1 mm 1 mps 717 mmHg 88%
    23:00 -1°C° 0.2 mm 1 mps 716 mmHg 89%

    21 December, Friday

    Time Temperature Precipitation Wind Pressure Humidity
    00:00 -1°C° 0.2 mm 1 mps 716 mmHg 91%
    01:00 -1°C° 0.2 mm 1 mps 716 mmHg 92%
    02:00 -1°C° 0.3 mm 1 mps 716 mmHg 93%
    03:00 -1°C° 0.3 mm 1 mps 716 mmHg 94%
    04:00 -1°C° 0.3 mm 1 mps 715 mmHg 95%
    05:00 -1°C° 0.3 mm 1 mps 716 mmHg 95%
    06:00 -2°C° 0.3 mm 0 mps 716 mmHg 95%
    07:00 -2°C° 0.3 mm 0 mps 716 mmHg 96%
    08:00 -2°C° 0.2 mm 0 mps 716 mmHg 94%
    09:00 -1°C° 0.2 mm 0 mps 716 mmHg 93%
    10:00 0°C° 0.2 mm 1 mps 716 mmHg 92%
    11:00 0°C° 0.2 mm 1 mps 716 mmHg 92%
    12:00 +1°C° 0.2 mm 1 mps 716 mmHg 91%
    13:00 +1°C° 0.2 mm 1 mps 716 mmHg 91%
    14:00 +1°C° 0.2 mm 1 mps 716 mmHg 92%
    15:00 0°C° 0.2 mm 1 mps 716 mmHg 93%
    16:00 0°C° 0.2 mm 1 mps 716 mmHg 94%
    17:00 0°C° 0.1 mm 1 mps 716 mmHg 93%
    18:00 0°C° 0.1 mm 1 mps 716 mmHg 93%
    19:00 -1°C° 0.1 mm 1 mps 716 mmHg 93%
    20:00 -1°C° 0 mm 1 mps 716 mmHg 93%
    21:00 -2°C° 0 mm 1 mps 716 mmHg 92%
    22:00 -4°C° 0 mm 2 mps 716 mmHg 92%
    23:00 -4°C° 0 mm 2 mps 716 mmHg 92%

    22 December, Saturday

    Time Temperature Precipitation Wind Pressure Humidity
    00:00 -4°C° 0 mm 2 mps 716 mmHg 91%
    01:00 -4°C° 0 mm 2 mps 716 mmHg 91%
    02:00 -4°C° 0 mm 2 mps 716 mmHg 91%
    03:00 -4°C° 0 mm 2 mps 715 mmHg 91%
    04:00 -3°C° 0 mm 2 mps 715 mmHg 90%
    05:00 -3°C° 0.1 mm 2 mps 715 mmHg 91%
    06:00 -3°C° 0.1 mm 2 mps 715 mmHg 91%
    07:00 -3°C° 0.1 mm 2 mps 715 mmHg 92%
    08:00 -2°C° 0.2 mm 2 mps 715 mmHg 91%
    09:00 -2°C° 0.2 mm 2 mps 715 mmHg 91%
    10:00 -2°C° 0.2 mm 2 mps 716 mmHg 91%
    11:00 -1°C° 0.2 mm 2 mps 716 mmHg 91%
    12:00 -1°C° 0.2 mm 2 mps 715 mmHg 91%
    13:00 -1°C° 0.2 mm 2 mps 715 mmHg 92%
    14:00 -1°C° 0.2 mm 2 mps 715 mmHg 92%
    15:00 +1°C° 0.2 mm 1 mps 715 mmHg 92%
    16:00 0°C° 0.2 mm 1 mps 716 mmHg 93%
    17:00 0°C° 0.2 mm 1 mps 716 mmHg 93%
    18:00 0°C° 0.2 mm 1 mps 716 mmHg 93%
    19:00 0°C° 0.2 mm 1 mps 716 mmHg 93%
    20:00 0°C° 0.1 mm 1 mps 717 mmHg 93%
    21:00 0°C° 0.1 mm 1 mps 717 mmHg 93%
    22:00 -1°C° 0.1 mm 0 mps 717 mmHg 94%
    23:00 -1°C° 0.1 mm 0 mps 718 mmHg 94%
    Show more